Zurück zum Katalog

FREGAT DEB

LostHEO
NORAD 45995·DEBRIS·🇷🇺 Russia

Gestartet Jul 18, 2011 von Baikonur Cosmodrome

Loading…

Nächste Überflüge (nächste 24 Stunden)

TLE

VeraltetSource: Space-Track

Epoche: Aug 20, 2020, 12:04 UTC

1 45995U 11037GW  20233.50306730  .00021599  00000-0  16156-1 0  9994
2 45995  51.0311 276.3533 2871500 115.0590 277.4075  9.12012597  1928

Verfolge FREGAT DEB in Echtzeit mit AllMySat

Download on the App Store